Location: Izdebno
(52.6670°N, 16.2170°E)
Time: 03:16:51
(UTC+02:00)

Transit 4A - Pass Details

Date: 29 February 2024
Orbit: 871 x 972 km, 66.8° (Epoch: 22 April)

Event Time Altitude Azimuth Distance (km) Brightness Sun altitude
Rises 22:37:00 0° 155° (SSE) 3,595 - -41.2°
Reaches altitude 10° 22:40:54 10° 131° (SE) 2,635 - -41.5°
Maximum altitude 22:43:47 14° 102° (ESE) 2,360 - -41.7°
Drops below altitude 10° 22:46:38 10° 74° (ENE) 2,609 - -41.9°
Sets 22:50:28 0° 50° (NE) 3,535 - -42.2°
